Waarnemingen

Advertentie
Mijn weer
Terschelling/Hoorn, Nederland (6251): temperatuur & dauwpunt: 23.03.2017 01:00:00 - 29.03.2017 01:00:00 (CEST)Terschelling/Hoorn, Nederland (6251): temperatuur 5cm: 23.03.2017 01:00:00 - 29.03.2017 01:00:00 (CEST)Terschelling/Hoorn, Nederland (6251): windsnelheid & windstoten: 23.03.2017 01:00:00 - 29.03.2017 01:00:00 (CEST)Terschelling/Hoorn, Nederland (6251): windrichting: 23.03.2017 01:00:00 - 29.03.2017 01:00:00 (CEST)Terschelling/Hoorn, Nederland (6251): luchtdruk: 23.03.2017 01:00:00 - 29.03.2017 01:00:00 (CEST)Terschelling/Hoorn, Nederland (6251): zicht: 23.03.2017 01:00:00 - 29.03.2017 01:00:00 (CEST)Terschelling/Hoorn, Nederland (6251): neerslag: 23.03.2017 01:00:00 - 29.03.2017 01:00:00 (CEST)
Datum & Tijd tt [°C] td [°C] tt 5cm [°C] ff [km/u] ff [kn] fx [km/u] fx [kn] dd ppp [hPa] vv [km] rr [mm]
29.03.2017 01:00:00 9,1 8,5 8,8 23 13 - - ZW 1019,4 6 -
29.03.2017 00:00:00 9,1 8,4 8,7 25 14 36 19 WZW 1019,6 6 0,0
28.03.2017 23:00:00 9,3 8,5 9,1 29 16 36 19 ZW 1019,5 5 0,0
28.03.2017 22:00:00 9,5 8,1 8,9 25 14 36 19 ZW 1019,4 6 0,0
28.03.2017 21:00:00 9,5 8,0 8,7 18 10 29 16 ZW 1019,4 3,6 0,0
28.03.2017 20:00:00 10,3 7,2 9,9 22 12 25 14 ZW 1019,2 8 0,0
28.03.2017 19:00:00 11,0 6,8 10,8 14 8 18 10 WZW 1019,2 11 0,0
28.03.2017 18:00:00 13,7 8,0 14,2 14 8 14 8 ZW 1019,2 12 0,0
28.03.2017 17:00:00 14,2 6,7 15,2 11 6 18 10 ZZW 1019,4 14 0,0
28.03.2017 16:00:00 13,2 8,1 15,1 7 4 11 6 Z 1019,7 12 0,0
28.03.2017 15:00:00 13,1 6,6 15,3 11 6 14 8 Z 1020,0 13 0,0
28.03.2017 14:00:00 13,2 8,2 14,3 11 6 14 8 Z 1020,3 12 0,0
28.03.2017 13:00:00 13,2 7,9 15,2 11 6 14 8 ZZW 1020,4 13 0,0
28.03.2017 12:00:00 11,3 7,2 12,6 11 6 14 8 ZW 1020,5 12 0,0
28.03.2017 11:00:00 10,3 8,2 11,6 7 4 11 6 ZZW 1020,4 9 0,0
28.03.2017 10:00:00 9,2 7,5 9,6 7 4 14 8 ZW 1020,2 7 0,0
28.03.2017 09:00:00 7,9 7,0 7,6 7 4 7 4 ZZO 1019,8 4,0 0,0
28.03.2017 08:00:00 4,6 4,6 0,6 7 4 11 6 OZO 1019,7 2,0 0,0
28.03.2017 07:00:00 3,8 3,7 0,6 7 4 11 6 O 1019,5 0,1 0,0
28.03.2017 06:00:00 3,5 3,3 1,9 11 6 14 8 ONO 1019,7 0,3 0,0
28.03.2017 05:00:00 3,0 2,9 1,0 11 6 14 8 ONO 1020,1 0,4 0,0
28.03.2017 04:00:00 3,3 3,2 2,2 11 6 14 8 NO 1020,5 1,2 0,0
28.03.2017 03:00:00 3,8 3,6 2,0 11 6 14 8 NO 1021,0 1,6 0,0
28.03.2017 02:00:00 4,0 3,7 2,8 11 6 14 8 NO 1021,5 2,3 0,0
28.03.2017 01:00:00 4,5 4,1 3,3 14 8 18 10 NO 1021,9 2,9 0,0
28.03.2017 00:00:00 4,6 4,2 3,2 14 8 14 8 ONO 1022,1 3,1 0,0
27.03.2017 23:00:00 4,6 4,4 3,7 11 6 14 8 NO 1022,5 2,8 0,0
27.03.2017 22:00:00 4,7 4,5 3,7 11 6 14 8 NO 1022,7 3,0 0,0
27.03.2017 21:00:00 5,4 5,2 5,3 14 8 22 12 NO 1022,6 0,3 0,0
27.03.2017 20:00:00 5,4 5,0 5,1 14 8 22 12 NO 1022,2 2,6 0,0
27.03.2017 19:00:00 6,5 5,7 6,9 18 10 25 14 NO 1022,2 6 0,0
27.03.2017 18:00:00 8,7 6,5 9,6 18 10 25 14 NO 1022,5 11 0,0
27.03.2017 17:00:00 8,8 6,8 10,4 22 12 25 14 NNO 1023,0 10 0,0
27.03.2017 16:00:00 9,4 7,1 11,6 22 12 25 14 NNO 1023,5 11 0,0
27.03.2017 15:00:00 10,8 7,2 12,8 18 10 22 12 NNO 1024,1 13 0,0
27.03.2017 14:00:00 11,9 7,5 14,7 11 6 18 10 NO 1024,8 16 0,0
27.03.2017 13:00:00 10,2 6,4 12,7 4 2 14 8 O 1025,3 14 0,0
27.03.2017 12:00:00 8,4 6,4 10,2 11 6 18 10 O 1025,4 11 0,0
27.03.2017 11:00:00 6,2 5,2 7,9 14 8 22 12 O 1025,6 8 0,0
27.03.2017 10:00:00 6,7 6,3 7,1 18 10 25 14 O 1025,7 6 0,0
27.03.2017 09:00:00 5,9 5,8 5,7 18 10 25 14 ONO 1025,7 1,1 0,0
27.03.2017 08:00:00 5,3 5,2 3,9 14 8 22 12 ONO 1025,6 2,0 0,0
27.03.2017 07:00:00 5,8 5,7 5,8 22 12 25 14 ONO 1025,4 2,2 0,0
27.03.2017 06:00:00 5,6 5,5 5,6 14 8 25 14 ONO 1025,6 1,1 0,0
27.03.2017 05:00:00 4,9 4,7 5,0 18 10 22 12 ONO 1025,6 0,2 0,0
27.03.2017 04:00:00 5,4 5,2 5,5 14 8 22 12 ONO 1025,9 0,3 0,0
27.03.2017 03:00:00 6,3 6,2 5,9 18 10 22 12 ONO 1026,3 3,1 0,0
27.03.2017 02:00:00 6,2 6,0 6,1 18 10 32 18 ONO 1026,6 2,1 0,0
27.03.2017 01:00:00 6,6 6,4 6,4 22 12 29 16 O 1026,7 3,4 0,0
27.03.2017 00:00:00 4,7 4,5 3,6 14 8 14 8 NO 1026,8 2,9 0,0
26.03.2017 23:00:00 4,9 4,8 4,5 11 6 22 12 NO 1026,9 2,1 0,0
26.03.2017 22:00:00 5,6 5,4 5,6 18 10 25 14 ONO 1026,9 0,7 0,0
26.03.2017 21:00:00 5,2 5,0 5,2 14 8 25 14 NO 1026,4 0,3 0,0
26.03.2017 20:00:00 5,4 5,2 5,7 22 12 25 14 NO 1026,3 0,4 0,0
26.03.2017 19:00:00 6,3 5,2 6,5 18 10 29 16 NO 1026,3 14 0,0
26.03.2017 18:00:00 7,6 5,5 8,4 22 12 29 16 NO 1026,6 19 0,0
26.03.2017 17:00:00 8,8 5,8 10,4 18 10 25 14 NO 1026,7 17 0,0
26.03.2017 16:00:00 9,3 5,8 11,1 22 12 29 16 NNO 1026,9 29 0,0
26.03.2017 15:00:00 9,9 5,3 12,2 18 10 25 14 NNO 1027,2 31 0,0
26.03.2017 14:00:00 10,1 3,9 12,4 18 10 22 12 ONO 1027,5 33 0,0
26.03.2017 13:00:00 9,9 5,3 12,0 14 8 22 12 NNO 1027,4 24 0,0
26.03.2017 12:00:00 9,6 6,0 11,5 14 8 22 12 NO 1027,5 32 0,0
26.03.2017 11:00:00 8,9 5,4 9,9 14 8 22 12 NNO 1027,6 23 0,0
26.03.2017 10:00:00 8,3 6,1 8,6 11 6 22 12 NNO 1027,6 18 0,0
26.03.2017 09:00:00 7,4 6,3 6,8 11 6 14 8 NNO 1027,3 15 0,0
26.03.2017 08:00:00 4,7 4,5 1,5 7 4 11 6 N 1027,0 10 0,0
26.03.2017 07:00:00 4,1 3,7 0,7 11 6 11 6 NNO 1027,0 6 0,0
26.03.2017 06:00:00 4,5 4,4 2,9 11 6 14 8 NNO 1027,0 10 0,0
26.03.2017 05:00:00 4,0 3,7 1,6 11 6 14 8 NNO 1027,2 7 0,0
26.03.2017 04:00:00 4,6 4,3 3,3 11 6 18 10 NNO 1027,6 8 0,0
26.03.2017 03:00:00 5,5 5,0 4,5 11 6 14 8 NNO 1027,9 13 0,0
26.03.2017 02:00:00 5,4 4,7 3,4 11 6 14 8 NNO 1028,2 12 0,0
26.03.2017 01:00:00 4,9 4,5 2,9 7 4 14 8 NNO 1028,5 12 0,0
26.03.2017 00:00:00 5,5 4,8 4,5 11 6 18 10 NNO 1029,2 15 0,0
25.03.2017 23:00:00 5,2 4,3 3,6 11 6 14 8 NNO 1029,6 20 0,0
25.03.2017 22:00:00 5,5 4,3 4,3 11 6 14 8 NNO 1029,2 19 0,0
25.03.2017 21:00:00 4,9 3,8 2,9 7 4 14 8 NNO 1029,2 17 0,0
25.03.2017 20:00:00 6,1 4,3 5,4 11 6 22 12 NNO 1029,2 24 0,0
25.03.2017 19:00:00 7,3 4,2 7,4 14 8 25 14 NNO 1029,3 33 0,0
25.03.2017 18:00:00 8,3 2,6 9,2 14 8 25 14 N 1029,4 28 0,0
25.03.2017 17:00:00 9,0 1,2 10,4 18 10 29 16 NNO 1030,3 30 0,0
25.03.2017 16:00:00 9,4 0,1 10,9 22 12 25 14 N 1031,2 41 0,0
25.03.2017 15:00:00 9,3 -0,3 11,4 18 10 25 14 N 1031,9 32 0,0
25.03.2017 14:00:00 9,2 1,6 11,3 18 10 22 12 N 1032,6 34 0,0
25.03.2017 13:00:00 9,7 -0,2 11,5 14 8 22 12 NNO 1033,4 34 0,0
25.03.2017 12:00:00 9,3 -2,5 10,7 11 6 18 10 N 1033,6 32 0,0
25.03.2017 11:00:00 8,7 1,2 9,4 11 6 18 10 NNO 1033,9 42 0,0
25.03.2017 10:00:00 7,2 3,3 7,6 11 6 18 10 NNO 1033,8 33 0,0
25.03.2017 09:00:00 3,7 2,5 1,9 4 2 11 6 NO 1033,6 21 0,0
25.03.2017 08:00:00 0,8 0,5 -2,5 4 2 7 4 NNO 1033,6 15 0,0
25.03.2017 07:00:00 0,7 0,3 -2,6 4 2 11 6 NO 1033,4 10 0,0
25.03.2017 06:00:00 2,1 1,7 -2,1 4 2 11 6 NNO 1033,6 14 0,0
25.03.2017 05:00:00 1,6 1,4 -1,9 4 2 7 4 NNO 1033,9 18 0,0
25.03.2017 04:00:00 2,0 1,7 -1,8 4 2 11 6 NNO 1034,2 8 0,0
25.03.2017 03:00:00 2,5 1,6 -1,1 11 6 11 6 NNO 1034,7 11 0,0
25.03.2017 02:00:00 3,1 2,5 -1,0 4 2 7 4 NNO 1035,1 11 0,0
25.03.2017 01:00:00 3,2 2,4 -0,3 7 4 11 6 NO 1034,8 10 0,0
25.03.2017 00:00:00 3,5 2,3 2,1 11 6 18 10 NO 1034,9 11 0,0
24.03.2017 23:00:00 4,8 3,2 3,5 14 8 22 12 NO 1034,9 9 0,0
24.03.2017 22:00:00 4,9 3,3 3,5 14 8 22 12 NO 1034,7 10 0,0
24.03.2017 21:00:00 4,9 3,1 3,9 14 8 22 12 NO 1034,2 13 0,0
24.03.2017 20:00:00 5,4 3,1 4,5 14 8 25 14 NO 1033,3 12 0,0
24.03.2017 19:00:00 7,6 3,1 7,4 18 10 36 19 NO 1032,6 21 0,0
24.03.2017 18:00:00 8,3 4,5 8,8 25 14 43 23 NO 1032,8 20 0,0
24.03.2017 17:00:00 8,8 4,3 9,8 29 16 40 21 NNO 1032,7 19 0,0
24.03.2017 16:00:00 9,4 4,0 10,7 25 14 32 18 NNO 1033,2 18 0,0
24.03.2017 15:00:00 10,5 4,3 12,6 22 12 29 16 ONO 1033,1 25 0,0
24.03.2017 14:00:00 10,4 3,3 12,1 22 12 32 18 ONO 1033,3 30 0,0
24.03.2017 13:00:00 9,3 2,5 10,6 29 16 36 19 O 1032,8 27 0,0
24.03.2017 12:00:00 8,7 3,6 9,6 29 16 36 19 O 1032,5 27 0,0
24.03.2017 11:00:00 8,2 4,3 9,4 22 12 32 18 O 1032,0 17 0,0
24.03.2017 10:00:00 7,2 4,4 7,6 22 12 29 16 O 1031,4 20 0,0
24.03.2017 09:00:00 5,6 3,5 5,4 18 10 22 12 ONO 1030,6 15 0,0
24.03.2017 08:00:00 3,5 1,9 2,3 18 10 22 12 ONO 1030,1 8 0,0
24.03.2017 07:00:00 3,3 1,7 2,0 18 10 22 12 ONO 1029,8 14 0,0
24.03.2017 06:00:00 3,1 1,9 1,8 18 10 22 12 ONO 1028,9 12 0,0
24.03.2017 05:00:00 4,5 2,6 3,2 18 10 25 14 ONO 1028,5 17 0,0
24.03.2017 04:00:00 4,3 2,7 3,2 18 10 25 14 NO 1027,9 18 0,0
24.03.2017 03:00:00 5,3 3,3 4,2 22 12 32 18 NO 1027,7 15 0,0
24.03.2017 02:00:00 5,8 3,7 4,7 25 14 32 18 NO 1026,8 15 0,0
24.03.2017 01:00:00 5,7 4,0 4,5 22 12 29 16 NO 1026,3 13 0,0
24.03.2017 00:00:00 5,7 3,3 4,6 22 12 32 18 NO 1025,9 19 0,0
23.03.2017 23:00:00 6,2 3,7 5,4 29 16 43 23 ONO 1025,4 15 0,0
23.03.2017 22:00:00 6,6 3,8 5,7 29 16 43 23 NO 1024,7 15 0,0
23.03.2017 21:00:00 6,7 3,7 5,7 29 16 36 19 NO 1023,9 14 0,0
23.03.2017 20:00:00 6,8 3,7 6,1 29 16 40 21 NO 1022,9 16 0,0
23.03.2017 19:00:00 7,6 3,7 7,3 32 18 50 27 NO 1022,1 17 0,0
23.03.2017 18:00:00 8,6 3,3 8,7 36 19 54 29 ONO 1021,1 20 0,0
23.03.2017 17:00:00 8,8 3,9 9,5 43 23 58 31 ONO 1020,3 17 0,0
23.03.2017 16:00:00 8,9 4,4 9,9 43 23 54 29 ONO 1020,1 17 0,0
23.03.2017 15:00:00 9,3 4,9 10,8 36 19 54 29 ONO 1020,3 14 0,0
23.03.2017 14:00:00 9,3 4,3 10,6 36 19 47 25 NO 1020,2 15 0,0
23.03.2017 13:00:00 9,1 4,6 10,7 32 18 43 23 NO 1019,9 18 0,0
23.03.2017 12:00:00 9,1 4,9 10,3 32 18 43 23 ONO 1019,7 20 0,0
23.03.2017 11:00:00 8,4 4,0 9,2 29 16 40 21 ONO 1019,4 25 0,0
23.03.2017 10:00:00 7,6 3,7 7,9 29 16 36 19 ONO 1018,9 25 0,0
23.03.2017 09:00:00 5,8 2,8 5,1 22 12 25 14 ONO 1018,6 23 0,0
23.03.2017 08:00:00 4,3 2,3 3,3 18 10 25 14 ONO 1017,9 17 0,0
23.03.2017 07:00:00 4,0 1,6 3,2 18 10 29 16 ONO 1017,5 27 0,0
23.03.2017 06:00:00 5,7 2,0 4,6 22 12 32 18 O 1016,9 36 0,0
23.03.2017 05:00:00 5,9 1,4 4,9 22 12 32 18 O 1016,5 39 0,0
23.03.2017 04:00:00 6,2 1,6 5,3 25 14 36 19 O 1016,5 26 0,0
23.03.2017 03:00:00 6,3 2,0 5,1 25 14 32 18 O 1016,1 27 0,0
23.03.2017 02:00:00 6,3 2,2 5,1 25 14 29 16 O 1016,2 32 0,0
23.03.2017 01:00:00 - - - - - - - - - - -

tt = temperatuur
td = dauwpunt
tt 5cm = temperatuur 5cm
ff = windsnelheid
fx = windstoten
dd = windrichting
ppp = luchtdruk
vv = zicht
rr = neerslag

Weerstations in de omgeving